COSMOS 2251 DEB

Satellite information

Favourite Embed

Satellite Type and Status

DEBRISIN ORBIT

Key statistics

Satellite COSMOS 2251 DEB at a glance.

Uptime

11812

Days in orbit

Revolutions

≈ 14.5

Per day

Orbit

LEO

Low Earth Orbit

Inclination

74.0

Latest

Satellite identification and parameters

Extended collection of information and parameters for COSMOS 2251 DEB.

Object identification

Identified? True

Debris? True

Object name: COSMOS 2251 DEB

International designator: 1993-036ABQ

Object number (NORAD): 34846

Object ID (CCSDS): 34846

Country: COMMONWEALTH OF INDEPENDENT STATES (CIS)

Current information (Y/N): Y

RCS size: SMALL

Orbital parameters

Period: 99.536 minutes

Inclination: 74.0339 deg

SMA: 7114.53 km

Apoapsis: 753.838 km

Periapsis: 718.952 km

RAAN: 6.0474 deg

Eccentricy: 0.00245177

Argument of periapsis: 88.0565 deg

Mean anomaly: 272.3401 deg

Mean motion: 14.46716495 rev/day

Mean motion (dot): 0.00004336 rev/day2

B* drag term: 0.0012014045 1/REarth

Two-line elements (TLE)

Creation date: Oct. 18, 2025, 2:17 a.m.

Reference frame: TEME

Reference center: EARTH

Epoch: Oct. 17, 2025, 11 p.m. UTC

TLE line 0: 0 COSMOS 2251 DEB

TLE line 1: 1 34846U 93036ABQ 25290.95879603 .00004336 00000-0 12014-2 0 9997

TLE line 2: 2 34846 74.0339 6.0474 0024518 88.0565 272.3401 14.46716495865977

Live tracking on map

Real-time ground track for satellite COSMOS 2251 DEB.

In-orbit conjunctions

A list of the most updated potential collisions computed for object COSMOS 2251 DEB.

Target Orbit TCA Probability of collision Miss distance Type
COSMOS 2251 DEB LEO 2025-02-02 08:10:10 0.0003268757 130.0 (m) DEBRIS
RUBIN 3/SL-8 SSO 2024-07-28 14:39:16 0.0001241651 352.0 (m) PAYLOAD

Associated space launch

Military communications satellite. Destroyed in a collision with Iridium 33.

COSMOS 2251 DEB was lifted into orbit during the mission ‘Kosmos-3M | Strela-2M 51’, on board a Kosmos-3M space rocket.

The launch took place on June 16, 1993, 4:17 a.m. from 132/1 (132L).

For more information about the launch, click the button.

Launch to space Kosmos-3M | Strela-2M 51
Kosmos-3M | Strela-2M 51

Agency: N/A

Status: Launch Successful

Launch date: June 16, 1993, 4:17 a.m. UTC

Rocket: Kosmos-3M

Launch pad: 132/1 (132L)

Location: Plesetsk Cosmodrome, Russian Federation

...

Latest news about this satellite

There are no fresh news available about this satellite. Check back as we update our databases every day.


Newsletter sign-up

Weekly statistics, charts and insights to help you stay on top of the space industry.